Starlink 31480

operational
NORAD ID: 59306 Int'l Des: 2024-056 Owner: SPXS Country: US Constellation: starlink
LEOCIRCULAR

About Starlink 31480

Description loading...

Live Position

Loading 3D Globe...

Upcoming Passes

Altitude History

Altitude vs Time

uPlot chart will show altitude changes over time

Two-Line Element Set

1 59306U 24056L 25351.02722708 .00000416 00000-0 24646-4 0 9991
2 59306 43.0038 337.4176 0000893 270.4592 89.6157 15.27586579 98517
Epoch: Dec 17, 2025 • Age: 24 hours

Current Status

Altitude 486.7 km
Velocity 7.63 km/s
Sub-Earth Point 42.78°N, 42.76°W
Launch Date Mar 24, 2024
Age 1.7 years
Type internet

Technical Details

Classification Payload
Mass 730.00 kg
Dry Mass 700.00 kg
Total Mass 730.00 kg
Length 0.30 m
Diameter 4.10 m
Span 29.00 m
Shape Box + pan
Manufacturer SPXS
Bus Type Starlink V2M
Phase Status In Orbit
Owner/State SPXS/US

Large Constellations

Loading constellations...